| time (UTC) | temp F | wind direction | speed MPH | gust MPH | rain 1hr in | rain 24hr in | rain mn in | humidity % | barometer mb |
| 20260905195403 | 49 | 0 | 0.0 | 0.0 | 0.00 | 0.08 | 0.08 | 100 | |
| 20260905194503 | 49 | 356 | 0.0 | 1.0 | 0.00 | 0.08 | 0.08 | 100 | |
| 20260905193603 | 49 | 0 | 0.0 | 0.0 | 0.00 | 0.08 | 0.08 | 100 | |
| 20260905192703 | 49 | 356 | 0.0 | 2.0 | 0.00 | 0.08 | 0.08 | 100 | |
| 20260905191803 | 49 | 356 | 0.0 | 1.0 | 0.00 | 0.08 | 0.08 | 100 | |
| 20260905190903 | 50 | 0 | 0.0 | 0.0 | 0.00 | 0.08 | 0.08 | 100 | |
| 20260905190003 | 50 | 0 | 0.0 | 0.0 | 0.00 | 0.08 | 0.08 | 100 | |
| 20260905185619 | 50 | 0 | 0.0 | 0.0 | 0.00 | 0.08 | 0.08 | 100 | |
| 20260905184503 | 50 | 0 | 0.0 | 0.0 | 0.00 | 0.08 | 0.08 | 100 | |
| 20260905183603 | 50 | 0 | 0.0 | 0.0 | 0.00 | 0.08 | 0.08 | 100 | |
| 20260905182703 | 51 | 0 | 0.0 | 0.0 | 0.00 | 0.08 | 0.08 | 100 | |
| 20260905181803 | 51 | 0 | 0.0 | 0.0 | 0.00 | 0.08 | 0.08 | 100 | |
| 20260905180903 | 51 | 0 | 0.0 | 0.0 | 0.00 | 0.08 | 0.08 | 100 | |
| 20260905180003 | 52 | 0 | 0.0 | 0.0 | 0.00 | 0.08 | 0.08 | 100 | |
| 20260905175403 | 52 | 356 | 0.0 | 1.0 | 0.00 | 0.08 | 0.08 | 100 | |
| 20260905174717 | 52 | 356 | 0.0 | 1.0 | 0.00 | 0.08 | 0.08 | 100 | |
| 20260905173603 | 53 | 337 | 0.0 | 3.0 | 0.00 | 0.08 | 0.08 | 100 | |
| 20260905172703 | 54 | 288 | 0.0 | 2.0 | 0.00 | 0.09 | 0.08 | 99 | |
| 20260905171803 | 54 | 288 | 0.0 | 1.0 | 0.00 | 0.09 | 0.08 | 97 | |
| 20260905170903 | 55 | 0 | 0.0 | 0.0 | 0.00 | 0.09 | 0.08 | 96 | |
| 20260905170003 | 56 | 0 | 0.0 | 0.0 | 0.00 | 0.10 | 0.08 | 95 | |
| 20260905165403 | 56 | 288 | 0.0 | 1.0 | 0.00 | 0.11 | 0.08 | 94 | |
| 20260905164503 | 57 | 288 | 0.0 | 1.0 | 0.00 | 0.14 | 0.08 | 92 | |
| 20260905163603 | 59 | 288 | 0.0 | 1.0 | 0.00 | 0.18 | 0.08 | 93 | |
| 20260905162916 | 58 | 288 | 0.0 | 1.0 | 0.00 | 0.23 | 0.08 | 95 | |
| 20260905161803 | 57 | 288 | 0.0 | 1.0 | 0.00 | 0.29 | 0.08 | 94 | |
| 20260905160903 | 58 | 0 | 0.0 | 0.0 | 0.00 | 0.33 | 0.08 | 93 | |
| 20260905160218 | 58 | 288 | 0.0 | 1.0 | 0.00 | 0.35 | 0.08 | 93 | |
| 20260905155403 | 58 | 291 | 1.0 | 4.0 | 0.00 | 0.37 | 0.08 | 94 | |
| 20260905154503 | 59 | 295 | 1.0 | 4.0 | 0.00 | 0.40 | 0.08 | 90 | |
| 20260905153603 | 58 | 295 | 1.0 | 3.0 | 0.00 | 0.43 | 0.08 | 91 | |
| 20260905152703 | 57 | 294 | 1.0 | 3.0 | 0.00 | 0.45 | 0.08 | 95 | |
| 20260905151803 | 57 | 297 | 1.0 | 3.0 | 0.00 | 0.45 | 0.08 | 96 | |
| 20260905150903 | 56 | 296 | 0.0 | 2.0 | 0.01 | 0.45 | 0.08 | 100 | |
| 20260905150218 | 56 | 295 | 0.0 | 2.0 | 0.02 | 0.45 | 0.08 | 100 | |
| 20260905145403 | 55 | 295 | 0.0 | 2.0 | 0.02 | 0.45 | 0.08 | 100 | |
| 20260905144503 | 55 | 0 | 0.0 | 0.0 | 0.02 | 0.45 | 0.08 | 100 | |
| 20260905143603 | 55 | 322 | 0.0 | 3.0 | 0.02 | 0.45 | 0.08 | 98 | |
| 20260905142703 | 56 | 333 | 0.0 | 3.0 | 0.02 | 0.45 | 0.08 | 96 | |
| 20260905141803 | 56 | 352 | 0.0 | 3.0 | 0.02 | 0.45 | 0.08 | 94 | |
| 20260905140903 | 56 | 351 | 0.0 | 3.0 | 0.02 | 0.44 | 0.07 | 94 | |
| 20260905140004 | 56 | 307 | 1.0 | 6.0 | 0.02 | 0.43 | 0.06 | 93 | |
| 20260905135617 | 57 | 303 | 0.0 | 6.0 | 0.03 | 0.43 | 0.06 | 93 | |
| 20260905134503 | 57 | 0 | 0.0 | 0.0 | 0.04 | 0.43 | 0.06 | 94 | |
| 20260905133603 | 57 | 291 | 1.0 | 4.0 | 0.04 | 0.43 | 0.06 | 94 | |
| 20260905132703 | 57 | 287 | 2.0 | 4.0 | 0.04 | 0.44 | 0.06 | 94 | |
| 20260905131803 | 57 | 271 | 0.0 | 4.0 | 0.04 | 0.46 | 0.06 | 94 | |
| 20260905130903 | 58 | 269 | 0.0 | 2.0 | 0.05 | 0.47 | 0.06 | 91 | |
| 20260905130003 | 57 | 322 | 1.0 | 3.0 | 0.04 | 0.46 | 0.04 | 89 | |
| 20260905125403 | 57 | 29 | 0.0 | 2.0 | 0.02 | 0.45 | 0.02 | 94 | |
| 20260905124503 | 57 | 0 | 0.0 | 0.0 | 0.02 | 0.45 | 0.02 | 92 | |
| 20260905123603 | 58 | 0 | 0.0 | 0.0 | 0.02 | 0.45 | 0.02 | 91 | |
| 20260905122703 | 58 | 0 | 0.0 | 0.0 | 0.02 | 0.45 | 0.02 | 88 | |
| 20260905121803 | 60 | 336 | 2.0 | 7.0 | 0.02 | 0.46 | 0.02 | 83 | |
| 20260905120903 | 62 | 296 | 4.0 | 10.0 | 0.01 | 0.44 | 0.01 | 75 | |
| 20260905120003 | 62 | 288 | 1.0 | 7.0 | 0.00 | 0.43 | 0.00 | 75 | |
| 20260905115403 | 60 | 312 | 1.0 | 4.0 | 0.00 | 0.43 | 0.00 | 78 | |
| 20260905114503 | 60 | 292 | 3.0 | 6.0 | 0.00 | 0.43 | 0.00 | 81 | |
| 20260905113603 | 60 | 269 | 2.0 | 7.0 | 0.00 | 0.43 | 0.00 | 81 | |
| 20260905112918 | 60 | 278 | 3.0 | 6.0 | 0.00 | 0.43 | 0.00 | 81 | |
| 20260905112017 | 59 | 266 | 3.0 | 7.0 | 0.00 | 0.43 | 0.00 | 82 | |
| 20260905110903 | 60 | 266 | 2.0 | 7.0 | 0.00 | 0.43 | 0.00 | 81 | |
| 20260905110216 | 60 | 287 | 2.0 | 5.0 | 0.00 | 0.43 | 0.00 | 81 | |
| 20260905105403 | 60 | 267 | 3.0 | 9.0 | 0.00 | 0.43 | 0.00 | 83 | |
| 20260905104503 | 60 | 268 | 4.0 | 9.0 | 0.00 | 0.43 | 0.00 | 81 | |
| 20260905103818 | 61 | 283 | 4.0 | 10.0 | 0.00 | 0.43 | 0.00 | 78 | |
| 20260905102703 | 61 | 304 | 4.0 | 10.0 | 0.00 | 0.43 | 0.00 | 73 | |
| 20260905101803 | 61 | 295 | 3.0 | 7.0 | 0.00 | 0.43 | 0.00 | 74 | |
| 20260905100903 | 61 | 273 | 3.0 | 10.0 | 0.00 | 0.43 | 0.00 | 78 | |
| 20260905100003 | 61 | 278 | 4.0 | 10.0 | 0.00 | 0.43 | 0.00 | 80 | |
| 20260905095619 | 60 | 277 | 4.0 | 10.0 | 0.00 | 0.43 | 0.00 | 79 | |
| 20260905094503 | 60 | 260 | 2.0 | 5.0 | 0.00 | 0.43 | 0.00 | 83 | |
| 20260905093603 | 59 | 296 | 1.0 | 3.0 | 0.00 | 0.43 | 0.00 | 87 | |
| 20260905092703 | 59 | 285 | 2.0 | 4.0 | 0.00 | 0.43 | 0.00 | 85 | |
| 20260905092016 | 58 | 284 | 2.0 | 5.0 | 0.00 | 0.43 | 0.00 | 85 | |
| 20260905090903 | 58 | 272 | 2.0 | 5.0 | 0.00 | 0.43 | 0.00 | 85 | |
| 20260905090003 | 57 | 284 | 1.0 | 6.0 | 0.00 | 0.43 | 0.00 | 87 | |
| 20260905085619 | 57 | 283 | 1.0 | 4.0 | 0.00 | 0.43 | 0.00 | 90 | |
| 20260905084503 | 56 | 276 | 3.0 | 6.0 | 0.00 | 0.43 | 0.00 | 100 | |
| 20260905083603 | 56 | 319 | 0.0 | 3.0 | 0.00 | 0.43 | 0.00 | 100 | |
| 20260905082703 | 55 | 302 | 0.0 | 1.0 | 0.00 | 0.43 | 0.00 | 100 | |
| 20260905081803 | 55 | 302 | 0.0 | 3.0 | 0.00 | 0.43 | 0.00 | 100 | |
| 20260905080903 | 55 | 297 | 2.0 | 5.0 | 0.00 | 0.43 | 0.00 | 100 | |
| 20260905080003 | 55 | 214 | 0.0 | 3.0 | 0.00 | 0.43 | 0.00 | 100 | |
| 20260905075618 | 54 | 308 | 0.0 | 3.0 | 0.00 | 0.43 | 0.00 | 100 | |
| 20260905074503 | 54 | 308 | 0.0 | 3.0 | 0.00 | 0.43 | 0.00 | 100 | |
| 20260905073603 | 53 | 308 | 0.0 | 2.0 | 0.00 | 0.43 | 0.00 | 100 | |
| 20260905072703 | 53 | 308 | 1.0 | 2.0 | 0.00 | 0.43 | 0.00 | 100 | |
| 20260905071803 | 53 | 308 | 0.0 | 2.0 | 0.00 | 0.43 | 0.00 | 100 | |
| 20260905070903 | 52 | 308 | 0.0 | 1.0 | 0.00 | 0.43 | 0.00 | 100 | |
| 20260905070003 | 52 | 305 | 0.0 | 1.0 | 0.00 | 0.43 | 0.00 | 100 | |
| 20260905065403 | 52 | 288 | 0.0 | 1.0 | 0.00 | 0.44 | 0.00 | 100 | |
| 20260905064503 | 52 | 288 | 0.0 | 2.0 | 0.00 | 0.45 | 0.00 | 100 | |
| 20260905063817 | 52 | 288 | 0.0 | 2.0 | 0.00 | 0.45 | 0.00 | 100 | |
| 20260905062703 | 51 | 288 | 2.0 | 3.0 | 0.00 | 0.45 | 0.00 | 100 | |
| 20260905061803 | 51 | 294 | 2.0 | 4.0 | 0.00 | 0.45 | 0.00 | 100 | |
| 20260905060903 | 51 | 294 | 1.0 | 4.0 | 0.00 | 0.45 | 0.00 | 100 | |
| 20260905060003 | 51 | 300 | 1.0 | 3.0 | 0.00 | 0.45 | 0.00 | 100 | |
| 20260905055403 | 51 | 302 | 2.0 | 4.0 | 0.00 | 0.45 | 0.00 | 100 | |
| 20260905054503 | 51 | 317 | 0.0 | 3.0 | 0.00 | 0.45 | 0.00 | 100 | |
| 20260905053603 | 51 | 349 | 0.0 | 2.0 | 0.00 | 0.45 | 0.00 | 100 | |
| 20260905052703 | 50 | 349 | 0.0 | 2.0 | 0.00 | 0.45 | 0.00 | 100 | |
| 20260905051803 | 50 | 0 | 0.0 | 0.0 | 0.00 | 0.45 | 0.00 | 100 | |
| 20260905050903 | 50 | 0 | 0.0 | 0.0 | 0.00 | 0.45 | 0.00 | 100 | |
| 20260905050003 | 50 | 0 | 0.0 | 0.0 | 0.00 | 0.45 | 0.00 | 100 | |
| 20260905045617 | 50 | 0 | 0.0 | 0.0 | 0.00 | 0.45 | 0.00 | 100 | |
| 20260905044503 | 50 | 0 | 0.0 | 0.0 | 0.00 | 0.45 | 0.00 | 100 | |
| 20260905043603 | 50 | 0 | 0.0 | 0.0 | 0.00 | 0.45 | 0.00 | 100 | |
| 20260905042703 | 50 | 349 | 0.0 | 1.0 | 0.00 | 0.45 | 0.00 | 100 | |
| 20260905041803 | 50 | 0 | 0.0 | 0.0 | 0.00 | 0.45 | 0.00 | 100 | |
| 20260905040903 | 50 | 0 | 0.0 | 0.0 | 0.00 | 0.45 | 0.00 | 100 | |
| 20260905040217 | 50 | 0 | 0.0 | 0.0 | 0.00 | 0.45 | 0.00 | 100 | |
| 20260905035403 | 50 | 0 | 0.0 | 0.0 | 0.00 | 0.45 | 0.00 | 100 | |
| 20260905034503 | 50 | 0 | 0.0 | 0.0 | 0.00 | 0.45 | 0.00 | 100 | |
| 20260905033603 | 50 | 0 | 0.0 | 0.0 | 0.00 | 0.45 | 0.00 | 100 | |
| 20260905032703 | 50 | 0 | 0.0 | 0.0 | 0.00 | 0.45 | 0.00 | 100 | |
| 20260905031803 | 50 | 349 | 0.0 | 2.0 | 0.00 | 0.45 | 0.00 | 100 | |
| 20260905030903 | 50 | 0 | 0.0 | 0.0 | 0.00 | 0.45 | 0.00 | 100 | |
| 20260905030003 | 50 | 349 | 0.0 | 1.0 | 0.00 | 0.45 | 0.00 | 100 | |
| 20260905025403 | 50 | 349 | 0.0 | 1.0 | 0.00 | 0.45 | 0.00 | 100 | |
| 20260905024716 | 50 | 349 | 0.0 | 1.0 | 0.00 | 0.45 | 0.00 | 100 | |
| 20260905023603 | 50 | 0 | 0.0 | 0.0 | 0.00 | 0.45 | 0.00 | 100 | |
| 20260905022703 | 50 | 0 | 0.0 | 0.0 | 0.00 | 0.45 | 0.00 | 100 | |
| 20260905021803 | 50 | 0 | 0.0 | 0.0 | 0.00 | 0.45 | 0.00 | 100 | |
| 20260905020903 | 50 | 0 | 0.0 | 0.0 | 0.00 | 0.45 | 0.00 | 100 | |
| 20260905020217 | 50 | 349 | 0.0 | 1.0 | 0.00 | 0.45 | 0.00 | 100 | |
| 20260905015403 | 50 | 349 | 0.0 | 1.0 | 0.00 | 0.45 | 0.00 | 100 | |
| 20260905014503 | 50 | 0 | 0.0 | 0.0 | 0.00 | 0.45 | 0.00 | 100 | |
| 20260905013603 | 50 | 0 | 0.0 | 0.0 | 0.00 | 0.45 | 0.00 | 100 | |
| 20260905012918 | 50 | 0 | 0.0 | 0.0 | 0.00 | 0.45 | 0.00 | 100 | |
| 20260905011803 | 50 | 0 | 0.0 | 0.0 | 0.00 | 0.45 | 0.00 | 100 | |
| 20260905011117 | 50 | 0 | 0.0 | 0.0 | 0.00 | 0.45 | 0.00 | 100 | |
| 20260905010003 | 50 | 0 | 0.0 | 0.0 | 0.00 | 0.45 | 0.00 | 100 | |
| 20260905005403 | 50 | 0 | 0.0 | 0.0 | 0.00 | 0.45 | 0.00 | 100 | |
| 20260905004503 | 50 | 0 | 0.0 | 0.0 | 0.00 | 0.45 | 0.00 | 100 | |
| 20260905003603 | 50 | 330 | 0.0 | 4.0 | 0.00 | 0.45 | 0.00 | 100 | |
| 20260905002918 | 50 | 307 | 0.0 | 2.0 | 0.00 | 0.45 | 0.00 | 100 | |
| 20260905001803 | 50 | 0 | 0.0 | 0.0 | 0.00 | 0.45 | 0.00 | 100 | |
| 20260905000903 | 50 | 0 | 0.0 | 0.0 | 0.00 | 0.45 | 0.00 | 100 | |
| 20260905000216 | 50 | 0 | 0.0 | 0.0 | 0.00 | 0.45 | 0.00 | 100 | |
| 20260904235615 | 50 | 0 | 0.0 | 0.0 | 0.00 | 0.45 | 0.00 | 100 | |
| 20260904234503 | 50 | 0 | 0.0 | 0.0 | 0.00 | 0.45 | 0.00 | 100 | |
| 20260904233603 | 50 | 0 | 0.0 | 0.0 | 0.00 | 0.45 | 0.00 | 100 | |
| 20260904232703 | 50 | 0 | 0.0 | 0.0 | 0.00 | 0.45 | 0.00 | 100 | |
| 20260904231803 | 50 | 0 | 0.0 | 0.0 | 0.00 | 0.45 | 0.00 | 100 | |
| 20260904230903 | 50 | 0 | 0.0 | 0.0 | 0.00 | 0.45 | 0.00 | 100 | |
| 20260904230003 | 50 | 0 | 0.0 | 0.0 | 0.00 | 0.45 | 0.00 | 100 | |
| 20260904225403 | 50 | 0 | 0.0 | 0.0 | 0.00 | 0.45 | 0.00 | 100 | |
| 20260904224503 | 50 | 0 | 0.0 | 0.0 | 0.00 | 0.45 | 0.00 | 100 | |
| 20260904223603 | 50 | 0 | 0.0 | 0.0 | 0.00 | 0.45 | 0.00 | 100 | |
| 20260904222703 | 50 | 0 | 0.0 | 0.0 | 0.00 | 0.45 | 0.00 | 100 | |
| 20260904221803 | 50 | 0 | 0.0 | 0.0 | 0.00 | 0.45 | 0.00 | 100 | |
| 20260904220903 | 50 | 0 | 0.0 | 0.0 | 0.00 | 0.45 | 0.00 | 100 | |
| 20260904220219 | 50 | 0 | 0.0 | 0.0 | 0.00 | 0.45 | 0.00 | 100 | |
| 20260904215403 | 50 | 303 | 0.0 | 2.0 | 0.00 | 0.45 | 0.45 | 100 | |
| 20260904214503 | 50 | 0 | 0.0 | 0.0 | 0.00 | 0.45 | 0.45 | 100 | |
| 20260904213817 | 50 | 0 | 0.0 | 0.0 | 0.00 | 0.45 | 0.45 | 100 | |
| 20260904212917 | 50 | 0 | 0.0 | 0.0 | 0.00 | 0.45 | 0.45 | 100 | |
| 20260904211803 | 50 | 0 | 0.0 | 0.0 | 0.00 | 0.45 | 0.45 | 100 | |
| 20260904210903 | 50 | 0 | 0.0 | 0.0 | 0.00 | 0.45 | 0.45 | 100 | |
| 20260904210219 | 50 | 349 | 0.0 | 1.0 | 0.00 | 0.45 | 0.45 | 100 | |
| 20260904205618 | 50 | 352 | 0.0 | 2.0 | 0.00 | 0.45 | 0.45 | 100 | |
| 20260904204503 | 51 | 349 | 0.0 | 3.0 | 0.00 | 0.45 | 0.45 | 100 | |
| 20260904203603 | 51 | 329 | 0.0 | 2.0 | 0.00 | 0.45 | 0.45 | 100 | |
| 20260904202703 | 51 | 0 | 0.0 | 0.0 | 0.00 | 0.45 | 0.45 | 100 | |
| 20260904201803 | 51 | 335 | 0.0 | 1.0 | 0.00 | 0.45 | 0.45 | 100 | |
| 20260904201119 | 51 | 335 | 0.0 | 2.0 | 0.00 | 0.45 | 0.45 | 100 |